contact: severine.martini@mio.osupytheas.fr, dominique.lefevre@mio.osupytheas.fr
Project:EMSO Ligure-ouest http://www.emso-fr.org/EMSO-France
Sensor Microcat Sea-Bird SBE37 SMP,  Serial 57510 
DOI : "https://doi.org/10.17882/97948" 
Title:EMSO Ligure Ouest : Data Bathybot capteur Microcat - deploiement 2023-04-28
Datetime,Profondeur,Latitude,Longitude,Temperature,Conductivite,Pression,Salinite
time,m,degree_north,degree_east,degree_C,S/m,db,PSU 
2023-11-20T10:42:49,2420,42.8014,5.9826,13.2975,4.59924,2453.477,38.4889
2023-11-20T10:45:49,2420,42.8014,5.9826,13.2971,4.59928,2453.469,38.4896
2023-11-20T10:48:49,2420,42.8014,5.9826,13.2975,4.59929,2453.477,38.4893
2023-11-20T10:51:49,2420,42.8014,5.9826,13.2971,4.59926,2453.477,38.4894
2023-11-20T10:54:49,2420,42.8014,5.9826,13.2972,4.59928,2453.446,38.4895
2023-11-20T10:57:49,2420,42.8014,5.9826,13.2970,4.59946,2453.424,38.4914
2023-11-20T11:00:49,2420,42.8014,5.9826,13.2975,4.60009,2453.424,38.4969
2023-11-20T11:03:49,2420,42.8014,5.9826,13.3019,4.60036,2453.469,38.4950
2023-11-20T11:06:49,2420,42.8014,5.9826,13.3143,4.60056,2453.446,38.4846
2023-11-20T11:09:49,2420,42.8014,5.9826,13.3033,4.60019,2453.424,38.4921
2023-11-20T11:12:49,2420,42.8014,5.9826,13.3061,4.60212,2453.446,38.5075
2023-11-20T11:15:49,2420,42.8014,5.9826,13.3137,4.60271,2453.469,38.5055
2023-11-20T11:18:49,2420,42.8014,5.9826,13.3642,4.60345,2453.469,38.4624
2023-11-20T11:21:49,2420,42.8014,5.9826,13.3319,4.60189,2453.461,38.4797
2023-11-20T11:24:50,2420,42.8014,5.9826,13.3115,4.60244,2453.506,38.5052
2023-11-20T11:27:49,2420,42.8014,5.9826,13.3068,4.60010,2453.506,38.4877
2023-11-20T11:30:49,2420,42.8014,5.9826,13.3021,4.60030,2453.514,38.4942
2023-11-20T11:33:49,2420,42.8014,5.9826,13.3027,4.60044,2453.506,38.4949
2023-11-20T11:36:49,2420,42.8014,5.9826,13.3000,4.60065,2453.514,38.4996
2023-11-20T11:39:49,2420,42.8014,5.9826,13.3463,4.60171,2453.506,38.4637
2023-11-20T11:42:49,2420,42.8014,5.9826,13.3108,4.60228,2453.514,38.5043
2023-11-20T11:45:49,2420,42.8014,5.9826,13.3464,4.60133,2453.514,38.4601
2023-11-20T11:48:49,2420,42.8014,5.9826,13.3318,4.60029,2453.528,38.4647
2023-11-20T11:51:49,2420,42.8014,5.9826,13.3841,4.60048,2453.551,38.4147
2023-11-20T11:54:49,2420,42.8014,5.9826,13.3105,4.60024,2453.537,38.4854
2023-11-20T11:57:49,2420,42.8014,5.9826,13.3090,4.59993,2453.528,38.4840
2023-11-20T12:00:49,2420,42.8014,5.9826,13.3039,4.59974,2453.537,38.4873
2023-11-20T12:03:49,2420,42.8014,5.9826,13.3041,4.59957,2453.514,38.4854
2023-11-20T12:06:49,2420,42.8014,5.9826,13.3010,4.59948,2453.551,38.4876
2023-11-20T12:09:49,2420,42.8014,5.9826,13.3038,4.59970,2453.537,38.4869
2023-11-20T12:12:49,2420,42.8014,5.9826,13.3027,4.59945,2453.537,38.4856
2023-11-20T12:15:49,2420,42.8014,5.9826,13.3016,4.59952,2453.537,38.4874
2023-11-20T12:18:49,2420,42.8014,5.9826,13.3009,4.59959,2453.559,38.4888
2023-11-20T12:21:49,2420,42.8014,5.9826,13.3030,4.59940,2453.559,38.4848
2023-11-20T12:24:49,2420,42.8014,5.9826,13.3197,4.59995,2453.537,38.4735
2023-11-20T12:27:49,2420,42.8014,5.9826,13.3015,4.59943,2453.537,38.4867
2023-11-20T12:30:50,2420,42.8014,5.9826,13.2982,4.59948,2453.559,38.4904
2023-11-20T12:33:49,2420,42.8014,5.9826,13.3034,4.59938,2453.604,38.4843
2023-11-20T12:36:49,2420,42.8014,5.9826,13.2993,4.60053,2453.559,38.4993
2023-11-20T12:39:49,2420,42.8014,5.9826,13.3057,4.59944,2453.559,38.4826
2023-11-20T12:42:49,2420,42.8014,5.9826,13.3017,4.59937,2453.582,38.4858
2023-11-20T12:45:49,2420,42.8014,5.9826,13.3000,4.59944,2453.559,38.4883
2023-11-20T12:48:49,2420,42.8014,5.9826,13.2998,4.59940,2453.559,38.4881
2023-11-20T12:51:49,2420,42.8014,5.9826,13.3016,4.59957,2453.596,38.4879
2023-11-20T12:54:49,2420,42.8014,5.9826,13.3101,4.59965,2453.582,38.4802
2023-11-20T12:57:49,2420,42.8014,5.9826,13.3026,4.60019,2453.604,38.4927
2023-11-20T13:00:49,2420,42.8014,5.9826,13.3079,4.60018,2453.559,38.4874
2023-11-20T13:03:49,2420,42.8014,5.9826,13.3021,4.60019,2453.559,38.4932
2023-11-20T13:06:49,2420,42.8014,5.9826,13.3125,4.60042,2453.582,38.4850
2023-11-20T13:09:49,2420,42.8014,5.9826,13.3013,4.59953,2453.596,38.4877
2023-11-20T13:12:49,2420,42.8014,5.9826,13.2989,4.59942,2453.559,38.4891
2023-11-20T13:15:49,2420,42.8014,5.9826,13.3013,4.59932,2453.567,38.4858
2023-11-20T13:18:49,2420,42.8014,5.9826,13.3004,4.59939,2453.582,38.4873
2023-11-20T13:21:49,2420,42.8014,5.9826,13.2992,4.59933,2453.604,38.4879
2023-11-20T13:24:49,2420,42.8014,5.9826,13.3005,4.59937,2453.582,38.4870
2023-11-20T13:27:49,2420,42.8014,5.9826,13.2992,4.59933,2453.604,38.4879
2023-11-20T13:30:49,2420,42.8014,5.9826,13.2993,4.59931,2453.604,38.4877
2023-11-20T13:33:49,2420,42.8014,5.9826,13.3006,4.59933,2453.596,38.4866
2023-11-20T13:36:49,2420,42.8014,5.9826,13.2986,4.59930,2453.590,38.4883
2023-11-20T13:39:49,2420,42.8014,5.9826,13.2984,4.59937,2453.582,38.4892
2023-11-20T13:42:49,2420,42.8014,5.9826,13.2992,4.59962,2453.582,38.4907
2023-11-20T13:45:49,2420,42.8014,5.9826,13.3102,4.59942,2453.590,38.4779
2023-11-20T13:48:49,2420,42.8014,5.9826,13.3000,4.59948,2453.491,38.4886
2023-11-20T13:51:49,2420,42.8014,5.9826,13.3000,4.59959,2453.537,38.4896
2023-11-20T13:54:49,2420,42.8014,5.9826,13.2978,4.59933,2453.514,38.4894
2023-11-20T13:57:49,2420,42.8014,5.9826,13.2998,4.59939,2453.537,38.4880
2023-11-20T14:00:49,2420,42.8014,5.9826,13.2992,4.59928,2453.522,38.4875
2023-11-20T14:03:49,2420,42.8014,5.9826,13.2986,4.59926,2453.537,38.4880
2023-11-20T14:06:49,2420,42.8014,5.9826,13.3002,4.59929,2453.537,38.4866
2023-11-20T14:09:49,2420,42.8014,5.9826,13.3015,4.59932,2453.544,38.4856
2023-11-20T14:12:49,2420,42.8014,5.9826,13.2985,4.59936,2453.574,38.4889
2023-11-20T14:15:49,2420,42.8014,5.9826,13.2993,4.59928,2453.574,38.4874
2023-11-20T14:18:49,2420,42.8014,5.9826,13.3002,4.59955,2453.559,38.4891
2023-11-20T14:21:49,2420,42.8014,5.9826,13.2985,4.59940,2453.551,38.4893
2023-11-20T14:24:49,2420,42.8014,5.9826,13.3002,4.59932,2453.528,38.4869
2023-11-20T14:27:49,2420,42.8014,5.9826,13.2983,4.59940,2453.537,38.4895
2023-11-20T14:30:49,2420,42.8014,5.9826,13.2985,4.59932,2453.537,38.4886
2023-11-20T14:33:49,2420,42.8014,5.9826,13.2985,4.59926,2453.596,38.4881
2023-11-20T14:36:49,2420,42.8014,5.9826,13.3011,4.59957,2453.537,38.4883
2023-11-20T14:39:49,2420,42.8014,5.9826,13.3026,4.59938,2453.559,38.4851
2023-11-20T14:42:49,2420,42.8014,5.9826,13.2991,4.59921,2453.559,38.4870
2023-11-20T14:45:49,2420,42.8014,5.9826,13.2999,4.59939,2453.537,38.4878
2023-11-20T14:48:49,2420,42.8014,5.9826,13.3000,4.59928,2453.537,38.4866
2023-11-20T14:51:49,2420,42.8014,5.9826,13.2982,4.59946,2453.514,38.4903
2023-11-20T14:54:49,2420,42.8014,5.9826,13.3006,4.59942,2453.559,38.4875
2023-11-20T14:57:49,2420,42.8014,5.9826,13.3002,4.59940,2453.551,38.4876
2023-11-20T15:00:49,2420,42.8014,5.9826,13.2985,4.59941,2453.537,38.4894
2023-11-20T15:03:49,2420,42.8014,5.9826,13.2979,4.59940,2453.574,38.4899
2023-11-20T15:06:49,2420,42.8014,5.9826,13.2986,4.59931,2453.514,38.4884
2023-11-20T15:09:49,2420,42.8014,5.9826,13.2984,4.59932,2453.537,38.4887
2023-11-20T15:12:49,2420,42.8014,5.9826,13.2982,4.59949,2453.559,38.4905
2023-11-20T15:15:49,2420,42.8014,5.9826,13.2998,4.59948,2453.537,38.4887
2023-11-20T15:18:49,2420,42.8014,5.9826,13.2993,4.59941,2453.559,38.4886
2023-11-20T15:21:49,2420,42.8014,5.9826,13.2993,4.59930,2453.537,38.4876
2023-11-20T15:24:49,2420,42.8014,5.9826,13.2985,4.59926,2453.537,38.4881
2023-11-20T15:27:49,2420,42.8014,5.9826,13.2989,4.59933,2453.582,38.4882
2023-11-20T15:30:49,2420,42.8014,5.9826,13.2983,4.59922,2453.559,38.4879
2023-11-20T15:33:49,2420,42.8014,5.9826,13.2985,4.59927,2453.537,38.4881
2023-11-20T15:36:49,2420,42.8014,5.9826,13.2988,4.59928,2453.559,38.4879
2023-11-20T15:39:49,2420,42.8014,5.9826,13.2985,4.59922,2453.544,38.4877
2023-11-20T15:42:49,2420,42.8014,5.9826,13.2986,4.59953,2453.537,38.4904
2023-11-20T15:45:49,2420,42.8014,5.9826,13.2983,4.59928,2453.559,38.4884
2023-11-20T15:48:49,2420,42.8014,5.9826,13.2980,4.59954,2453.514,38.4911
2023-11-20T15:51:49,2420,42.8014,5.9826,13.2976,4.59953,2453.528,38.4914
2023-11-20T15:54:49,2420,42.8014,5.9826,13.3040,4.60051,2453.559,38.4944
2023-11-20T15:57:49,2420,42.8014,5.9826,13.2993,4.59940,2453.559,38.4885
2023-11-20T16:00:50,2420,42.8014,5.9826,13.3000,4.59934,2453.537,38.4874
2023-11-20T16:03:49,2420,42.8014,5.9826,13.2989,4.59933,2453.514,38.4883
2023-11-20T16:06:49,2420,42.8014,5.9826,13.2991,4.59951,2453.514,38.4898
2023-11-20T16:09:49,2420,42.8014,5.9826,13.3036,4.59988,2453.559,38.4887
2023-11-20T16:12:49,2420,42.8014,5.9826,13.3015,4.60692,2453.514,38.5574
2023-11-20T16:15:49,2420,42.8014,5.9826,13.3047,4.60009,2453.514,38.4897
2023-11-20T16:18:49,2420,42.8014,5.9826,13.3007,4.59951,2453.537,38.4882
2023-11-20T16:21:49,2420,42.8014,5.9826,13.3011,4.59954,2453.537,38.4880
2023-11-20T16:24:49,2420,42.8014,5.9826,13.3025,4.60152,2453.514,38.5054
2023-11-20T16:27:49,2420,42.8014,5.9826,13.3009,4.59946,2453.537,38.4875
2023-11-20T16:30:49,2420,42.8014,5.9826,13.3016,4.59948,2453.514,38.4871
2023-11-20T16:33:50,2420,42.8014,5.9826,13.3046,4.59942,2453.537,38.4835
2023-11-20T16:36:49,2420,42.8014,5.9826,13.2987,4.59946,2453.537,38.4897
2023-11-20T16:39:49,2420,42.8014,5.9826,13.2988,4.59939,2453.514,38.4889
2023-11-20T16:42:49,2420,42.8014,5.9826,13.3108,4.60340,2453.491,38.5149
2023-11-20T16:45:49,2420,42.8014,5.9826,13.3023,4.60029,2453.528,38.4940
2023-11-20T16:48:49,2420,42.8014,5.9826,13.3002,4.59928,2453.537,38.4865
2023-11-20T16:51:49,2420,42.8014,5.9826,13.2985,4.59941,2453.514,38.4895
2023-11-20T16:54:49,2420,42.8014,5.9826,13.3029,4.59979,2453.537,38.4887
2023-11-20T16:57:49,2420,42.8014,5.9826,13.2990,4.59959,2453.582,38.4907
2023-11-20T17:00:49,2420,42.8014,5.9826,13.2994,4.59925,2453.559,38.4870
2023-11-20T17:03:49,2420,42.8014,5.9826,13.2989,4.59946,2453.604,38.4895
2023-11-20T17:06:49,2420,42.8014,5.9826,13.2986,4.59937,2453.522,38.4889
2023-11-20T17:09:49,2420,42.8014,5.9826,13.2998,4.59993,2453.582,38.4931
2023-11-20T17:12:49,2420,42.8014,5.9826,13.3011,4.59936,2453.559,38.4864
2023-11-20T17:15:49,2420,42.8014,5.9826,13.3010,4.59937,2453.559,38.4866
2023-11-20T17:18:49,2420,42.8014,5.9826,13.3071,4.59950,2453.559,38.4817
2023-11-20T17:21:49,2420,42.8014,5.9826,13.2988,4.59940,2453.544,38.4890
2023-11-20T17:24:49,2420,42.8014,5.9826,13.3082,4.60022,2453.514,38.4874
2023-11-20T17:27:49,2420,42.8014,5.9826,13.2988,4.59951,2453.551,38.4901
2023-11-20T17:30:49,2420,42.8014,5.9826,13.2996,4.59974,2453.551,38.4915
2023-11-20T17:33:49,2420,42.8014,5.9826,13.2991,4.60001,2453.567,38.4945
2023-11-20T17:36:49,2420,42.8014,5.9826,13.3023,4.60079,2453.537,38.4987
2023-11-20T17:39:49,2420,42.8014,5.9826,13.3061,4.59985,2453.522,38.4861
2023-11-20T17:42:49,2420,42.8014,5.9826,13.2997,4.59954,2453.559,38.4894
2023-11-20T17:45:49,2420,42.8014,5.9826,13.2998,4.59955,2453.537,38.4895
2023-11-20T17:48:49,2420,42.8014,5.9826,13.3052,4.60081,2453.537,38.4960
2023-11-20T17:51:49,2420,42.8014,5.9826,13.2990,4.59982,2453.537,38.4928
2023-11-20T17:54:49,2420,42.8014,5.9826,13.3026,4.59997,2453.551,38.4906
2023-11-20T17:57:49,2420,42.8014,5.9826,13.3014,4.59982,2453.559,38.4904
2023-11-20T18:00:49,2420,42.8014,5.9826,13.3046,4.59928,2453.537,38.4821
2023-11-20T18:03:49,2420,42.8014,5.9826,13.3034,4.60010,2453.596,38.4911
2023-11-20T18:06:49,2420,42.8014,5.9826,13.3015,4.60011,2453.514,38.4930
2023-11-20T18:09:49,2420,42.8014,5.9826,13.3018,4.60056,2453.528,38.4971
2023-11-20T18:12:49,2420,42.8014,5.9826,13.3000,4.59996,2453.514,38.4931
2023-11-20T18:15:49,2420,42.8014,5.9826,13.3066,4.60013,2453.551,38.4882
2023-11-20T18:18:49,2420,42.8014,5.9826,13.3033,4.59974,2453.537,38.4878
2023-11-20T18:21:49,2420,42.8014,5.9826,13.3034,4.59968,2453.514,38.4872
2023-11-20T18:24:49,2420,42.8014,5.9826,13.3007,4.59974,2453.537,38.4903
2023-11-20T18:27:49,2420,42.8014,5.9826,13.2998,4.59943,2453.551,38.4884
2023-11-20T18:30:49,2420,42.8014,5.9826,13.3026,4.60212,2453.514,38.5110
2023-11-20T18:33:49,2420,42.8014,5.9826,13.3047,4.60019,2453.537,38.4906
2023-11-20T18:36:49,2420,42.8014,5.9826,13.3015,4.60002,2453.514,38.4922
2023-11-20T18:39:49,2420,42.8014,5.9826,13.3064,4.60047,2453.537,38.4916
2023-11-20T18:42:49,2420,42.8014,5.9826,13.3005,4.60022,2453.499,38.4951
2023-11-20T18:45:49,2420,42.8014,5.9826,13.3029,4.59993,2453.469,38.4901
2023-11-20T18:48:49,2420,42.8014,5.9826,13.2992,4.59957,2453.514,38.4902
2023-11-20T18:51:49,2420,42.8014,5.9826,13.3008,4.59936,2453.514,38.4867
2023-11-20T18:54:49,2420,42.8014,5.9826,13.2998,4.60067,2453.514,38.5001
2023-11-20T18:57:49,2420,42.8014,5.9826,13.3000,4.59978,2453.528,38.4914
2023-11-20T19:00:49,2420,42.8014,5.9826,13.3073,4.59968,2453.469,38.4832
2023-11-20T19:03:49,2420,42.8014,5.9826,13.2996,4.59931,2453.514,38.4875
2023-11-20T19:06:49,2420,42.8014,5.9826,13.2992,4.59957,2453.514,38.4902
2023-11-20T19:09:49,2420,42.8014,5.9826,13.3002,4.59943,2453.506,38.4879
2023-11-20T19:12:49,2420,42.8014,5.9826,13.3012,4.59971,2453.491,38.4895
2023-11-20T19:15:49,2420,42.8014,5.9826,13.3074,4.59991,2453.506,38.4854
2023-11-20T19:18:50,2420,42.8014,5.9826,13.3025,4.60255,2453.477,38.5152
2023-11-20T19:21:49,2420,42.8014,5.9826,13.3027,4.59982,2453.491,38.4891
2023-11-20T19:24:49,2420,42.8014,5.9826,13.3002,4.59996,2453.506,38.4929
2023-11-20T19:27:49,2420,42.8014,5.9826,13.2979,4.59928,2453.528,38.4887
2023-11-20T19:30:49,2420,42.8014,5.9826,13.3001,4.59988,2453.514,38.4923
2023-11-20T19:33:49,2420,42.8014,5.9826,13.3043,4.60087,2453.499,38.4975
2023-11-20T19:36:49,2420,42.8014,5.9826,13.3046,4.60135,2453.491,38.5017
2023-11-20T19:39:49,2420,42.8014,5.9826,13.3017,4.59995,2453.514,38.4914
2023-11-20T19:42:49,2420,42.8014,5.9826,13.3027,4.59957,2453.454,38.4868
2023-11-20T19:45:49,2420,42.8014,5.9826,13.2998,4.59947,2453.514,38.4887
2023-11-20T19:48:49,2420,42.8014,5.9826,13.2997,4.59926,2453.514,38.4869
2023-11-20T19:51:49,2420,42.8014,5.9826,13.2998,4.59920,2453.514,38.4862
2023-11-20T19:54:49,2420,42.8014,5.9826,13.2980,4.59923,2453.506,38.4883
2023-11-20T19:57:50,2420,42.8014,5.9826,13.2980,4.59927,2453.469,38.4886
2023-11-20T20:00:49,2420,42.8014,5.9826,13.2979,4.59926,2453.491,38.4886
2023-11-20T20:03:49,2420,42.8014,5.9826,13.2991,4.59925,2453.454,38.4874
2023-11-20T20:06:49,2420,42.8014,5.9826,13.2976,4.59930,2453.477,38.4893
2023-11-20T20:09:49,2420,42.8014,5.9826,13.2980,4.59930,2453.469,38.4889
2023-11-20T20:12:49,2420,42.8014,5.9826,13.2985,4.59928,2453.491,38.4882
2023-11-20T20:15:50,2420,42.8014,5.9826,13.3016,4.59942,2453.491,38.4865
2023-11-20T20:18:49,2420,42.8014,5.9826,13.2991,4.59974,2453.514,38.4919
2023-11-20T20:21:49,2420,42.8014,5.9826,13.3000,4.59960,2453.469,38.4898
2023-11-20T20:24:49,2420,42.8014,5.9826,13.3008,4.59950,2453.469,38.4880
2023-11-20T20:27:49,2420,42.8014,5.9826,13.3002,4.59964,2453.491,38.4899
2023-11-20T20:30:49,2420,42.8014,5.9826,13.2982,4.59922,2453.506,38.4880
2023-11-20T20:33:49,2420,42.8014,5.9826,13.2976,4.59921,2453.469,38.4885
2023-11-20T20:36:49,2420,42.8014,5.9826,13.2988,4.59932,2453.491,38.4883
2023-11-20T20:39:49,2420,42.8014,5.9826,13.2988,4.59921,2453.499,38.4873
2023-11-20T20:42:49,2420,42.8014,5.9826,13.2998,4.59928,2453.491,38.4869
2023-11-20T20:45:49,2420,42.8014,5.9826,13.2987,4.59947,2453.514,38.4898
2023-11-20T20:48:49,2420,42.8014,5.9826,13.3013,4.60026,2453.461,38.4947
2023-11-20T20:51:49,2420,42.8014,5.9826,13.3019,4.60037,2453.514,38.4952
2023-11-20T20:54:49,2420,42.8014,5.9826,13.2991,4.59960,2453.491,38.4907
2023-11-20T20:57:49,2420,42.8014,5.9826,13.2991,4.59931,2453.491,38.4879
2023-11-20T21:00:49,2420,42.8014,5.9826,13.2990,4.59939,2453.514,38.4887
2023-11-20T21:03:49,2420,42.8014,5.9826,13.2993,4.59934,2453.499,38.4879
2023-11-20T21:06:49,2420,42.8014,5.9826,13.2996,4.59972,2453.491,38.4913
2023-11-20T21:09:49,2420,42.8014,5.9826,13.3023,4.60046,2453.514,38.4956
2023-11-20T21:12:49,2420,42.8014,5.9826,13.2997,4.32977,2453.491,35.9564
2023-11-20T21:15:49,2420,42.8014,5.9826,13.3031,4.33538,2453.477,36.0056
2023-11-20T21:18:49,2420,42.8014,5.9826,13.2993,4.33704,2453.514,36.0246
2023-11-20T21:21:49,2420,42.8014,5.9826,13.3044,4.33900,2453.491,36.0382
2023-11-20T21:24:49,2420,42.8014,5.9826,13.3075,4.33734,2453.514,36.0199
2023-11-20T21:27:49,2420,42.8014,5.9826,13.3021,4.33770,2453.491,36.0282
2023-11-20T21:30:49,2420,42.8014,5.9826,13.3030,4.33854,2453.506,36.0352
2023-11-20T21:33:49,2420,42.8014,5.9826,13.3031,4.33842,2453.491,36.0340
2023-11-20T21:36:49,2420,42.8014,5.9826,13.3035,4.33908,2453.506,36.0398
2023-11-20T21:39:49,2420,42.8014,5.9826,13.3016,4.33890,2453.514,36.0399
2023-11-20T21:42:49,2420,42.8014,5.9826,13.3020,4.33846,2453.514,36.0354
2023-11-20T21:45:49,2420,42.8014,5.9826,13.2983,4.33933,2453.514,36.0469
2023-11-20T21:48:49,2420,42.8014,5.9826,13.2993,4.33818,2453.491,36.0353
2023-11-20T21:51:49,2420,42.8014,5.9826,13.2989,4.34069,2453.528,36.0591
2023-11-20T21:54:49,2420,42.8014,5.9826,13.2998,4.33881,2453.499,36.0407
2023-11-20T21:57:49,2420,42.8014,5.9826,13.2987,4.33812,2453.514,36.0352
2023-11-20T22:00:49,2420,42.8014,5.9826,13.2988,4.33822,2453.491,36.0361
2023-11-20T22:03:49,2420,42.8014,5.9826,13.2990,4.33832,2453.506,36.0369
2023-11-20T22:06:49,2420,42.8014,5.9826,13.2995,4.33840,2453.522,36.0371
2023-11-20T22:09:49,2420,42.8014,5.9826,13.2988,4.33770,2453.491,36.0313
2023-11-20T22:12:49,2420,42.8014,5.9826,13.2984,4.33789,2453.514,36.0334
2023-11-20T22:15:49,2420,42.8014,5.9826,13.2984,4.33820,2453.551,36.0363
2023-11-20T22:18:49,2420,42.8014,5.9826,13.2993,4.33782,2453.491,36.0319
2023-11-20T22:21:49,2420,42.8014,5.9826,13.3008,4.33878,2453.491,36.0395
2023-11-20T22:24:49,2420,42.8014,5.9826,13.2992,4.33863,2453.537,36.0396
2023-11-20T22:27:49,2420,42.8014,5.9826,13.2980,4.33843,2453.491,36.0388
2023-11-20T22:30:50,2420,42.8014,5.9826,13.2985,4.33857,2453.528,36.0397
2023-11-20T22:33:49,2420,42.8014,5.9826,13.2983,4.33805,2453.491,36.0350
2023-11-20T22:36:49,2420,42.8014,5.9826,13.2987,4.33845,2453.514,36.0383
2023-11-20T22:39:49,2420,42.8014,5.9826,13.2994,4.33873,2453.514,36.0403
2023-11-20T22:42:49,2420,42.8014,5.9826,13.2984,4.33817,2453.537,36.0360
2023-11-20T22:45:49,2420,42.8014,5.9826,13.3002,4.33773,2453.491,36.0303
2023-11-20T22:48:49,2420,42.8014,5.9826,13.2978,4.33811,2453.514,36.0360
2023-11-20T22:51:49,2420,42.8014,5.9826,13.2979,4.33840,2453.499,36.0386
2023-11-20T22:54:49,2420,42.8014,5.9826,13.3000,4.33864,2453.514,36.0390
2023-11-20T22:57:49,2420,42.8014,5.9826,13.3000,4.33793,2453.537,36.0323
2023-11-20T23:00:49,2420,42.8014,5.9826,13.3010,4.33810,2453.491,36.0329
2023-11-20T23:03:49,2420,42.8014,5.9826,13.3000,4.33848,2453.514,36.0374
2023-11-20T23:06:49,2420,42.8014,5.9826,13.2985,4.33936,2453.514,36.0471
2023-11-20T23:09:49,2420,42.8014,5.9826,13.2981,4.33906,2453.522,36.0446
2023-11-20T23:12:49,2420,42.8014,5.9826,13.2979,4.33912,2453.514,36.0453
2023-11-20T23:15:49,2420,42.8014,5.9826,13.3032,4.33919,2453.537,36.0411
2023-11-20T23:18:49,2420,42.8014,5.9826,13.2991,4.34029,2453.537,36.0552
2023-11-20T23:21:49,2420,42.8014,5.9826,13.3017,4.34154,2453.514,36.0644
2023-11-20T23:24:49,2420,42.8014,5.9826,13.3050,4.34163,2453.514,36.0622
2023-11-20T23:27:49,2420,42.8014,5.9826,13.3025,4.34132,2453.537,36.0616
2023-11-20T23:30:49,2420,42.8014,5.9826,13.3013,4.34118,2453.537,36.0614
2023-11-20T23:33:49,2420,42.8014,5.9826,13.3010,4.34008,2453.514,36.0515
2023-11-20T23:36:49,2420,42.8014,5.9826,13.2993,4.34040,2453.499,36.0561
2023-11-20T23:39:49,2420,42.8014,5.9826,13.3004,4.34101,2453.514,36.0607
2023-11-20T23:42:49,2420,42.8014,5.9826,13.3026,4.34151,2453.514,36.0633
2023-11-20T23:45:49,2420,42.8014,5.9826,13.3000,4.34162,2453.528,36.0667
2023-11-20T23:48:49,2420,42.8014,5.9826,13.2991,4.34066,2453.514,36.0586
2023-11-20T23:51:49,2420,42.8014,5.9826,13.2992,4.34094,2453.499,36.0611
2023-11-20T23:54:49,2420,42.8014,5.9826,13.2979,4.34195,2453.514,36.0718
2023-11-20T23:57:50,2420,42.8014,5.9826,13.2978,4.34157,2453.537,36.0684
